Tracking 29892 objects as of 21-Nov-2024
HD Live streaming from Space Station
objects crossing your sky now

STARLINK-31177

Track STARLINK-31177 now!
10-day predictions
STARLINK-31177 is classified as:


NORAD ID: 58873
Int'l Code: 2024-019W
Perigee: 495.2 km
Apogee: 495.7 km
Inclination: 43.0 °
Period: 94.4 minutes
Semi major axis: 6866 km
RCS: Unknown
Launch date: January 29, 2024
Source: United States (US)
Launch site: AIR FORCE EASTERN TEST RANGE (AFETR)
Your satellite tracking list
Your tracking list is empty




NASA's NSSDC Master Catalog

Two Line Element Set (TLE):
1 58873U 24019W   24325.30503877  .00018763  00000-0  72694-3 0  9992
2 58873  43.0019  44.3749 0000353 259.4670 100.6141 15.25834859 46570
Source of the keplerian elements: AFSPC